This demonstration page uses our WeatherBlox Daily Observations layout. Learn more.

Left ArrowRight Arrow

39.01783, -85.05884

Hourly Observations for December 27, 2017

Temp ( °F °C ) Dew Point ( °F °C ) Humidity (%) Winds ( mph kmh ) Pressure ( in mb ) Visibility ( mi km ) Precip ( " mm )
12:52 am 00:52 Cloudy 12 -11.1 5 -15 73 73 N 12 19 30.59 1036 10 16 0.00 0.00
1:52 am 01:52 Cloudy 10 -12.2 0 -17.8 63 63 N 10 17 30.60 1036 10 16 0.00 0.00
2:52 am 02:52 Mostly Clear 9 -12.8 -1 -18.3 64 64 N 8 13 30.60 1036 10 16 0.00 0.00
3:52 am 03:52 Mostly Clear 7 -13.9 -5 -20.6 57 57 NNW 10 17 30.61 1037 10 16 0.00 0.00
4:52 am 04:52 Mostly Clear 6 -14.4 -4 -20 63 63 N 10 17 30.61 1037 10 16 0.00 0.00
5:52 am 05:52 Clear 5 -15 -3 -19.4 69 69 N 9 15 30.63 1037 10 16 0.00 0.00
6:52 am 06:52 Clear 4 -15.6 -3 -19.4 73 73 NNW 7 11 30.66 1038 10 16 0.00 0.00
7:52 am 07:52 Clear 3 -16.1 -3 -19.4 76 76 NNW 6 9 30.68 1039 10 16 0.00 0.00
8:52 am 08:52 Sunny 4 -15.6 -2 -18.9 76 76 NW 6 9 30.69 1039 10 16 0.00 0.00
9:52 am 09:52 Sunny 6 -14.4 -1 -18.3 73 73 NW 6 9 30.72 1040 10 16 0.00 0.00
10:52 am 10:52 Sunny 9 -12.8 0 -17.8 66 66 VRB 5 7 30.73 1041 10 16 0.00 0.00
11:52 am 11:52 Sunny 11 -11.7 2 -16.7 67 67 NNW 3 6 30.71 1040 10 16 0.00 0.00
12:52 pm 12:52 Mostly Sunny 13 -10.6 1 -17.2 59 59 VRB 3 6 30.69 1039 10 16 0.00 0.00
1:52 pm 13:52 Sunny 15 -9.4 0 -17.8 51 51 VRB 3 6 30.68 1039 10 16 0.00 0.00
2:52 pm 14:52 Sunny 16 -8.9 -1 -18.3 47 47 NNW 7 11 30.68 1039 10 16 0.00 0.00
3:52 pm 15:52 Mostly Sunny 16 -8.9 -1 -18.3 47 47 NNW 5 7 30.68 1039 10 16 0.00 0.00
4:52 pm 16:52 Mostly Sunny 15 -9.4 -2 -18.9 46 46 NNW 9 15 30.69 1039 10 16 0.00 0.00
5:52 pm 17:52 Mostly Cloudy 12 -11.1 0 -17.8 58 58 N 8 13 30.70 1040 10 16 0.00 0.00
6:52 pm 18:52 Cloudy 11 -11.7 0 -17.8 61 61 N 9 15 30.72 1040 10 16 0.00 0.00
7:52 pm 19:52 Mostly Cloudy 11 -11.7 2 -16.7 67 67 N 8 13 30.73 1041 10 16 0.00 0.00
8:52 pm 20:52 Cloudy 11 -11.7 1 -17.2 64 64 N 12 19 30.70 1040 10 16 0.00 0.00
9:52 pm 21:52 Partly Cloudy 10 -12.2 2 -16.7 69 69 N 9 15 30.71 1040 10 16 0.00 0.00
10:52 pm 22:52 Partly Cloudy 10 -12.2 1 -17.2 67 67 NNE 7 11 30.70 1040 10 16 0.00 0.00
11:52 pm 23:52 Mostly Cloudy 10 -12.2 1 -17.2 67 67 NE 10 17 30.70 1040 10 16 0.00 0.00

Powered by AerisWeather